Location: Central Coast NSW, Australia
(33.2407°S, 151.4316°E)
Time: 17:04:40
(UTC+10:00)

Hubble Space Telescope - Pass Details

Date: 02 April 2019
Orbit: 537 x 540 km, 28.5° (Epoch: 20 April)

Event Time Altitude Azimuth Distance (km) Brightness Sun altitude
Exits shadow 06:34:47 - 287° (WNW) 1,947 3.0 -7.4°
Reaches altitude 10° 06:35:10 10° 289° (WNW) 1,800 2.8 -7.4°
Maximum altitude 06:39:08 43° 0° (N) 764 1.6 -6.5°
Drops below altitude 10° 06:43:06 10° 72° (ENE) 1,798 5.0 -5.7°
Sets 06:45:26 0° 79° (ENE) 2,688 6.7 -5.2°
